Location: Unspecified
(0.0000°N, 0.0000°E)
Time: 19:02:07
(UTC+00:00)

Vanguard 2 Rocket - Pass Details

Date: 07 October 2023
Orbit: 553 x 3312 km, 32.9° (Epoch: 28 November)

Event Time Altitude Azimuth Distance (km) Brightness Sun altitude
Rises 04:30:31 0° 234° (SW) 2,999 - -19.3°
Reaches altitude 10° 04:32:27 10° 233° (SW) 2,239 - -18.8°
Exits shadow 04:33:57 22° 233° (SW) 1,695 7.9 -18.4°
Maximum altitude 04:37:34 86° 145° (SE) 994 7.0 -17.5°
Drops below altitude 10° 04:46:24 10° 56° (NE) 3,747 10.8 -15.3°
Sets 04:50:33 0° 56° (NE) 5,201 11.6 -14.3°
